SANDSTONE Weather Reports


time (UTC)temp
C
wind
direction
speed
KPH
gust
KPH
rain 1hr
cm
rain 24hr
cm
rain mn
cm
humidity
%
barometer
mb
20260906203102 22 40 4.8 16.1 0.00 0.00 0.00 69 1019.7
20260906201607 22 68 3.2 12.9 0.00 0.00 0.00 68 1019.8
20260906194619 22 43 3.2 17.7 0.00 0.00 0.00 72 1019.9
20260906193107 22 48 4.8 12.9 0.00 0.00 0.00 72 1020.0
20260906191607 21 69 8.0 16.1 0.00 0.00 0.00 75 1020.1
20260906190059 22 38 4.8 16.1 0.00 0.00 0.00 77 1020.4
20260906184612 21 81 1.6 17.7 0.00 0.00 0.00 76 1020.8
20260906183106 21 72 6.4 17.7 0.00 0.00 0.00 76 1020.9
20260906181603 21 24 6.4 20.9 0.00 0.00 0.00 76 1021.0
20260906180104 22 103 3.2 12.9 0.00 0.00 0.00 70 1020.9
20260906174600 22 98 4.8 12.9 0.00 0.00 0.00 67 1021.0
20260906173104 23 132 1.6 11.3 0.00 0.00 0.00 66 1020.9
20260906171607 23 61 3.2 11.3 0.00 0.00 0.00 66 1021.0
20260906170103 22 55 3.2 11.3 0.00 0.00 0.00 67 1021.0
20260906164604 22 58 1.6 9.7 0.00 0.00 0.00 65 1021.0
20260906163103 22 57 3.2 6.4 0.00 0.00 0.00 68 1021.0
20260906161607 21 130 1.6 9.7 0.00 0.00 0.00 68 1021.1
20260906160110 21 0 3.2 9.7 0.00 0.00 0.00 70 1020.9
20260906154605 20 77 3.2 9.7 0.00 0.00 0.00 71 1021.1
20260906153101 20 49 1.6 6.4 0.00 0.00 0.00 77 1021.1
20260906151605 20 75 1.6 6.4 0.00 0.00 0.00 78 1021.2
20260906150105 20 101 1.6 6.4 0.00 0.00 0.00 82 1021.2
20260906144621 20 0 1.6 4.8 0.00 0.00 0.00 84 1021.3
20260906143102 18 94 1.6 6.4 0.00 0.00 0.00 87 1021.2
20260906141628 18 0 0.0 0.0 0.00 0.00 0.00 91 1021.4
20260906140110 17 0 0.0 0.0 0.00 0.00 0.00 95 1021.4
20260906134601 16 0 0.0 0.0 0.00 0.00 0.00 96 1021.4
20260906133104 15 0 0.0 0.0 0.00 0.00 0.00 97 1021.4
20260906131607 14 0 0.0 0.0 0.00 0.00 0.00 97 1021.4
20260906130104 13 0 0.0 0.0 0.00 0.00 0.00 97 1021.1
20260906124603 13 0 0.0 0.0 0.00 0.00 0.00 96 1020.9
20260906123104 12 0 0.0 0.0 0.00 0.00 0.00 96 1021.0
20260906121559 12 0 0.0 0.0 0.00 0.00 0.00 96 1020.8
20260906120106 12 0 0.0 0.0 0.00 0.00 0.00 97 1020.9
20260906114604 11 0 0.0 0.0 0.00 0.00 0.00 96 1020.7
20260906113105 11 0 0.0 0.0 0.00 0.00 0.00 96 1020.7
20260906111602 11 0 0.0 0.0 0.00 0.00 0.00 96 1020.7
20260906110057 11 0 0.0 0.0 0.00 0.00 0.00 96 1020.6
20260906104616 11 0 0.0 0.0 0.00 0.00 0.00 96 1020.6
20260906103106 11 0 0.0 0.0 0.00 0.00 0.00 96 1020.4
20260906101603 11 0 0.0 0.0 0.00 0.00 0.00 96 1020.4
20260906100058 11 0 0.0 0.0 0.00 0.00 0.00 96 1020.5
20260906094643 12 0 0.0 0.0 0.00 0.00 0.00 96 1020.5
20260906093109 12 0 0.0 0.0 0.00 0.00 0.00 96 1020.5
20260906091557 11 0 0.0 0.0 0.00 0.00 0.00 96 1020.6
20260906084605 12 0 0.0 0.0 0.00 0.00 0.00 96 1020.6
20260906083104 12 0 0.0 0.0 0.00 0.00 0.00 96 1020.6
20260906081602 12 0 0.0 0.0 0.00 0.00 0.00 96 1020.3
20260906080058 12 0 0.0 0.0 0.00 0.00 0.00 96 1020.2
20260906074609 12 0 0.0 0.0 0.00 0.00 0.00 96 1020.2
20260906073104 12 0 0.0 0.0 0.00 0.00 0.00 96 1020.1
20260906071604 12 0 0.0 0.0 0.00 0.00 0.00 96 1020.2
20260906070100 13 0 0.0 1.6 0.00 0.00 0.00 96 1020.3
20260906064602 12 0 0.0 1.6 0.00 0.00 0.00 96 1020.3
20260906063107 13 0 0.0 0.0 0.00 0.00 0.00 96 1020.2
20260906061605 13 0 0.0 0.0 0.00 0.00 0.00 96 1020.2
20260906060109 13 0 0.0 0.0 0.00 0.00 0.00 96 1020.0
20260906054601 13 0 0.0 1.6 0.00 0.00 0.00 96 1019.8
20260906053107 13 0 0.0 0.0 0.00 0.00 0.00 95 1019.7
20260906051604 13 0 0.0 0.0 0.00 0.00 0.00 95 1019.8
20260906050128 13 0 0.0 0.0 0.00 0.00 0.00 95 1019.7
20260906044559 13 0 0.0 1.6 0.00 0.00 0.00 95 1019.7
20260906043101 13 0 0.0 0.0 0.00 0.00 0.00 94 1019.6
20260906041601 14 0 0.0 3.2 0.00 0.00 0.00 94 1019.7
20260906040137 14 0 0.0 0.0 0.00 0.00 0.00 94 1019.6
20260906034606 15 0 0.0 0.0 0.00 0.00 0.00 94 1019.6
20260906033104 15 0 0.0 1.6 0.00 0.00 0.00 94 1019.5
20260906031603 15 0 0.0 1.6 0.00 0.00 0.00 93 1019.5
20260906030107 15 0 0.0 1.6 0.00 0.00 0.00 93 1019.4
20260906024604 16 0 0.0 0.0 0.00 0.00 0.00 93 1019.3
20260906023058 16 0 0.0 1.6 0.00 0.00 0.00 92 1019.2
20260906021605 16 0 0.0 1.6 0.00 0.00 0.00 91 1019.3
20260906020107 17 50 0.0 4.8 0.00 0.00 0.00 89 1019.1
20260906014602 17 55 0.0 6.4 0.00 0.00 0.00 90 1019.1
20260906013058 17 0 3.2 8.0 0.00 0.00 0.00 91 1019.0
20260906011603 17 65 1.6 8.0 0.00 0.00 0.00 92 1019.0
20260906010109 17 57 1.6 8.0 0.00 0.00 0.00 91 1018.9
20260906004605 18 61 1.6 6.4 0.00 0.00 0.00 91 1018.9
20260906003108 18 47 1.6 8.0 0.00 0.00 0.00 90 1018.8
20260906001617 18 34 3.2 8.0 0.00 0.00 0.00 89 1018.8
20260906000108 18 65 1.6 6.4 0.00 0.00 0.00 88 1018.9
20260905234601 18 45 3.2 12.9 0.00 0.00 0.00 86 1018.8
20260905233112 19 63 4.8 16.1 0.00 0.00 0.00 84 1018.8
20260905231600 20 54 3.2 16.1 0.00 0.00 0.00 83 1018.8
20260905230120 20 34 4.8 17.7 0.00 0.00 0.00 81 1018.7
20260905224609 21 72 6.4 14.5 0.00 0.00 0.00 77 1018.9
20260905223104 21 48 3.2 17.7 0.00 0.00 0.00 77 1019.0
20260905221603 21 52 4.8 17.7 0.00 0.00 0.00 73 1018.8
20260905220105 21 22 3.2 14.5 0.00 0.00 0.00 73 1018.8
20260905214600 21 45 1.6 8.0 0.00 0.00 0.00 71 1018.7
20260905213109 22 17 4.8 17.7 0.00 0.00 0.00 69 1018.9
20260905211603 22 76 4.8 17.7 0.00 0.00 0.00 68 1018.7
20260905210113 22 45 4.8 16.1 0.00 0.00 0.00 67 1018.9
20260905204604 22 36 0.0 12.9 0.00 0.00 0.00 68 1019.2